sat.trackr.live / text

‹ back to catalog

STARLINK-3611

NORAD 51779 · 2022-017M

PAYLOAD ACTIVE UNKNOWN

§ Identity

Operator
Country
US
Launch date
2022-02-25
Launch site
AFWTR
Launch vehicle
Mass (kg)
RCS (m²)

Purposes: comms

External: N2YO · Heavens-Above · Gunter

§ Orbital elements

Epoch: 2026-05-24T23:12:43.557120Z

Period
95.44 min
Inclination
53.2130°
Eccentricity
0.0001525
Mean motion
15.08842514 rev/d
Perigee alt
538.7 km
Apogee alt
540.8 km
Semi-major
6,917.9 km
B*
-1.0493e-5
RAAN
356.7440°
Arg perigee
97.2198°
Mean anomaly
262.8967°
Rev number
23,408

§ Raw data

STARLINK-36111 51779U 22017M   26144.96717080 -.00000455  00000+0 -10493-4 0  99922 51779  53.2130 356.7440 0001525  97.2198 262.8967 15.08842514234088

JSON: /api/v1/satellites/51779 · /tle

For live sub-satellite position, see the globe view (requires WebGL).

§ Visibility from observer

Set your observer location to see the next 7 days of passes ≥ 10°. The values pass through the URL so the page stays shareable.

No JS? Fill the form by hand. The geolocation button needs JavaScript.